星链-30331 (STARLINK-30331 )

导读 | 星芒AI

STARLINK-30331 是 SpaceX Starlink 卫星互联网项目中的一颗低轨卫星,属于第三代星链卫星(v1.5 或 v2 版本)。该卫星于2023年发射,旨在为全球提供高速、低延迟的宽带互联网服务。它运行在约550公里高的近地轨道,配备先进相控阵天线和激光通信系统,以提升网络性能和卫星间通信能力。作为Starlink星座的一部分,STARLINK-30331有助于扩大覆盖范围,特别是在偏远和网络基础设施薄弱的地区。

基本信息
目录编号:
57740
目录名称:
STARLINK-30331
国际标识:
2023-131J
轨道中心:
EARTH
卫星名称:
星链-30331
卫星全名:
星链-30331 (STARLINK-30331 )
卫星状态:
在轨 (已飞行790 天)
发射日期:
2023-09-01 UTC
国别 :
美国 (US)
星等 :
--
轨道信息
数据来源 国际轨道数据
星历时间: 2025-10-30T12:07:12+0800
14小时前
查看轨道信息
半长轴: 6861.279km
偏心率: 0.0001975
轨道倾角: 43.001°
近地点辐角 258.402°
升交点赤经 116.497°
平近点角 101.661°
近地点: 481.788km
远地点: 484.5km
周期: 94.269分钟
每日圈数: 15.27549
详细信息
固有亮度:
5
最大亮度:
0.3
卫星平台:
Starlink v2.0 mini
覆盖范围:
全球
运营商:
太空探索技术公司
运营商所在国:
美国
制造商(研发单位):
太空探索技术公司
制造商所在国:
美国
使用方式:
暂无
卫星简介
星链(Starlink)计划是由太空探索技术公司(SpaceX)提出的一个巨型低轨卫星互联网星座项目,计划在2019年至2024年间在太空搭建由约1.2万颗卫星组成的“星链”网络,其中1584颗将部署在地球上空550千米处的近地轨道,并从2020年开始工作。该卫星仍在工作。
2D轨道图
3D轨道图
轨道高度分析图
轨道倾角分析图
轨道综合分析图
查看轨道综合分析图